Weather History for Riverton, WY

Change the Weather History Date:

Wednesday, July 10, 2013

  Actual Average Record
Temperature  
Mean Temperature 77 °F 71 °F  
Max Temperature 95 °F 87 °F 95 °F (2013)
Min Temperature 58 °F 56 °F 49 °F (1999)
Degree Days  
Heating Degree Days 0 0  
Month to date heating degree days 0 8  
Since 1 June heating degree days 52 127  
Since 1 July heating degree days 0 8  
Cooling Degree Days 12 7  
Month to date cooling degree days 95 56  
Year to date cooling degree days 245 131  
Since 1 June cooling degree days 232 122  
Growing Degree Days 26 (Base 50)    
Moisture  
Dew Point 40 °F    
Average Humidity 41    
Maximum Humidity 75    
Minimum Humidity 7    
Precipitation  
Precipitation 0.00 in 0.03 in 0.29 in (1928)
Month to date precipitation 0.27 0.36  
Year to date precipitation 3.76 5.72  
Snow  
Snow 0.00 in - - ()
Month to date snowfall 0.0  
Since 1 June snowfall 0.0  
Since 1 July snowfall 0.0  
Snow Depth 0.00 in    
Sea Level Pressure  
Sea Level Pressure 29.94 in    
Wind  
Wind Speed 8 mph (North)    
Max Wind Speed 20 mph    
Max Gust Speed 29 mph    
Visibility 10 miles    
Events      
T = Trace of Precipitation, MM = Missing Value Source: NWS Daily Summary

Daily Weather History Graph

Daily Weather History Graph

Search for Another Location

Airport:

Trip Planner

Search our weather history database for the weather conditions in past years. The results will help you decide how hot, cold, wet, or windy it might be!

Date:

Astronomy

Jul. 10, 2013 Rise Set
Actual Time 5:44 AM MDT 8:53 PM MDT
Civil Twilight 5:09 AM MDT 9:28 PM MDT
Nautical Twilight 4:25 AM MDT 10:12 PM MDT
Astronomical Twilight 3:31 AM MDT 11:06 PM MDT
Moon 8:13 AM MDT (7/10) 9:59 PM MDT (7/10)
Length of Visible Light 16h 18m
Length of Day
15h 09m
Waxing Crescent, 5% of the Moon is Illuminated
Jul 10
Waxing Crescent
Jul 15
First Quarter
Jul 22
Full
Jul 29
Last Quarter
Aug 6
New

Hourly Weather History & Observations

Time (MDT) Temp. Dew Point Humidity Pressure Visibility Wind Dir Wind Speed Gust Speed Precip Events Conditions
12:53 AM 70.0 °F 48.9 °F 47% 30.02 in 10.0 mi ENE 11.5 mph - N/A   Clear
1:53 AM 68.0 °F 50.0 °F 52% 30.01 in 10.0 mi ENE 11.5 mph - N/A   Clear
2:53 AM 66.9 °F 50.0 °F 54% 30.00 in 10.0 mi ENE 10.4 mph - N/A   Clear
3:53 AM 64.0 °F 48.9 °F 58% 30.01 in 10.0 mi NNE 5.8 mph - N/A   Clear
4:53 AM 59.0 °F 48.9 °F 69% 30.02 in 10.0 mi NNW 9.2 mph - N/A   Clear
5:53 AM 59.0 °F 51.1 °F 75% 30.02 in 10.0 mi NW 11.5 mph - N/A   Clear
6:53 AM 62.1 °F 48.9 °F 62% 30.02 in 10.0 mi NW 8.1 mph - N/A   Clear
7:53 AM 68.0 °F 48.0 °F 49% 30.02 in 10.0 mi WNW 5.8 mph - N/A   Clear
8:53 AM 72.0 °F 50.0 °F 46% 30.03 in 10.0 mi West 5.8 mph - N/A   Clear
9:53 AM 75.0 °F 48.9 °F 40% 30.02 in 10.0 mi NW 9.2 mph - N/A   Clear
10:53 AM 78.1 °F 48.9 °F 36% 30.01 in 10.0 mi Calm Calm - N/A   Clear
11:53 AM 82.0 °F 50.0 °F 33% 29.98 in 10.0 mi Variable 4.6 mph - N/A   Clear
12:53 PM 86.0 °F 48.9 °F 28% 29.95 in 10.0 mi East 8.1 mph - N/A   Clear
1:53 PM 91.9 °F 39.9 °F 16% 29.92 in 10.0 mi NNW 11.5 mph 18.4 mph N/A   Clear
2:53 PM 91.0 °F 30.0 °F 11% 29.90 in 10.0 mi WNW 5.8 mph - N/A   Clear
3:53 PM 91.9 °F 30.9 °F 11% 29.88 in 10.0 mi Variable 3.5 mph - N/A   Clear
4:53 PM 93.9 °F 26.1 °F 9% 29.86 in 10.0 mi WNW 10.4 mph - N/A   Clear
5:53 PM 91.9 °F 21.0 °F 8% 29.86 in 10.0 mi Variable 3.5 mph - N/A   Clear
6:53 PM 93.0 °F 21.9 °F 8% 29.83 in 10.0 mi NNW 5.8 mph - N/A   Clear
7:53 PM 89.1 °F 21.9 °F 9% 29.82 in 10.0 mi North 3.5 mph - N/A   Clear
8:53 PM 84.0 °F 28.9 °F 14% 29.82 in 10.0 mi NNE 3.5 mph - N/A   Clear
9:53 PM 80.1 °F 28.0 °F 15% 29.83 in 10.0 mi NE 6.9 mph - N/A   Clear
10:53 PM 79.0 °F 32.0 °F 18% 29.84 in 10.0 mi East 10.4 mph - N/A   Clear
11:53 PM 77.0 °F 44.1 °F 31% 29.84 in 10.0 mi ESE 11.5 mph - N/A   Clear